Torna al catalogo

STARLINK-34552

AttivoComunicazioniVLEO
NORAD 64731·PAYLOAD·🇺🇸 United States

Lanciato Jul 2, 2025 da Cape Canaveral Space Force Station

Loading…

Prossimi Passaggi (prossime 24 ore)

TLE

AggiornatoSource: CelesTrak SupGP

Epoca: Sep 14, 2026, 21:42 UTC

1 64731C 25144H   26257.90465278  .00009462  00000+0  27965-3 0  2579
2 64731  53.1601  20.0886 0001222  82.9731 171.0277 15.34374544    16

Traccia STARLINK-34552 in tempo reale con AllMySat

Download on the App Store